Wind_Speed
15 12 14 16 15 14 6 8 8 6 3 8 13 13 12 11 12 13 6 1 4 8 8 13 15 14 11 7 13 18 21 23 25 26 26 25 25 21 24 23 19 20 18 19
9 17 16 7 8 10 11 12 12 6 7 9 8 12 12 11 4 2 1 5 7 10 11 13 17 18 16 9 8 14 18 21 25 24 23 21 20 22 22 18 20 21 18 17
18 2 7 11 12 13 13 13 10 10 8 10 8 13 11 8 9 7 6 6 8 11 13 13 15 17 18 16 13 11 16 20 24 24 21 21 19 21 19 18 15 17 26 21
17 16 6 11 14 14 15 12 12 10 10 11 13 11 15 15 9 6 6 8 9 11 11 12 13 16 18 18 16 11 12 16 19 21 23 24 23 22 21 17 18 16 17 23
14 14 15 13 13 12 14 9 13 13 12 13 13 9 8 12 11 4 7 9 10 11 13 15 16 17 17 19 18 14 6 9 13 16 22 21 23 21 19 17 17 18 16 17
16 3 3 5 1 8 4 9 11 11 12 15 17 13 12 12 8 5 7 9 10 11 13 15 19 20 21 21 21 18 12 4 6 12 16 20 19 19 18 18 16 16 17 17
15 8 3 2 10 8 11 12 10 12 12 14 15 16 5 7 9 6 7 8 9 10 12 14 17 20 23 25 24 20 18 13 12 6 11 14 18 18 19 20 18 17 16 17
16 11 5 3 5 8 13 14 12 15 13 13 8 10 6 8 8 8 7 6 8 10 11 13 16 19 20 22 24 24 21 20 17 11 7 9 12 14 15 19 18 16 18 13
6 6 4 4 6 3 8 11 7 10 9 10 6 7 6 7 7 6 7 6 8 8 8 10 15 19 19 19 19 21 21 20 19 17 14 9 8 11 11 11 12 14 16 16
2 3 5 2 3 4 3 2 4 4 7 13 11 8 2 12 9 7 5 4 6 6 7 9 12 15 16 16 15 18 19 19 19 19 17 13 11 9 13 15 17 18 20 21
6 5 6 5 8 5 6 7 5 4 8 6 7 2 7 6 5 0 3 6 7 8 8 9 11 13 14 16 19 18 17 15 17 18 18 17 12 9 7 12 16 19 18 22
2 4 10 13 7 7 11 12 14 10 15 11 12 5 5 6 4 3 6 6 8 9 9 9 12 15 16 15 17 17 17 14 15 15 17 18 16 12 7 7 10 12 16 14
1 4 7 9 8 7 10 9 13 16 13 17 11 2 7 5 4 4 4 5 6 8 11 10 12 13 14 16 15 14 16 16 15 14 14 15 16 15 14 9 7 12 14 13
3 6 9 10 7 6 4 7 8 10 11 15 16 8 9 7 2 1 2 4 5 6 8 10 11 14 15 15 14 13 13 16 17 16 12 13 13 14 13 11 9 10 13 13
4 11 6 10 7 8 10 9 9 11 11 10 9 7 6 7 2 2 2 4 7 8 8 8 9 11 15 15 15 14 14 14 15 17 15 7 7 10 12 12 11 8 8 13
3 7 6 11 4 9 11 12 12 13 12 12 11 13 11 4 5 6 5 5 9 10 9 10 11 14 15 16 17 17 17 17 17 15 15 9 9 7 9 10 10 10 8 7
7 8 7 11 2 9 13 15 17 17 13 10 11 3 4 5 5 6 9 10 11 11 11 13 15 16 16 17 17 18 18 18 17 16 15 11 8 9 6 8 9 9 11 10
7 10 7 8 6 11 1 3 8 10 9 7 6 4 1 4 7 11 12 8 9 12 14 15 17 18 19 18 20 20 20 19 18 17 15 15 12 10 7 7 8 9 9 11
10 10 3 4 8 11 16 4 4 6 7 6 8 3 4 4 10 13 7 5 11 14 17 19 19 20 21 22 21 21 21 21 21 19 16 15 15 11 9 7 6 7 8 10
13 11 8 7 4 4 6 3 0 2 10 7 1 1 3 8 10 9 15 14 15 20 21 22 25 24 22 23 21 21 21 22 22 21 18 16 15 15 13 9 7 6 7 10
10 11 12 9 5 7 4 4 2 7 3 5 2 6 9 10 10 15 15 16 21 21 22 23 22 21 24 26 23 21 21 22 22 23 21 19 18 17 15 12 8 6 7 9
6 7 7 10 5 8 5 6 6 4 2 4 8 9 10 11 13 15 15 16 22 22 20 21 20 20 20 20 19 20 21 22 22 23 23 21 19 18 16 12 10 6 5 8
4 4 3 6 3 2 4 3 2 3 8 10 10 9 9 12 15 16 16 16 18 20 20 17 15 15 18 19 18 19 20 22 23 22 22 21 19 18 18 15 11 8 6 7
5 3 4 3 5 4 6 7 7 8 8 9 10 11 12 14 14 15 16 15 15 17 20 18 17 17 18 19 18 20 21 20 22 22 22 21 21 19 17 15 11 7 6 6
7 0 7 8 10 8 8 4 3 6 9 11 12 10 10 10 14 15 14 13 17 19 20 22 21 20 21 22 22 21 21 20 19 19 20 21 21 19 16 13 7 4 2 5
8 9 8 5 6 3 3 5 8 10 12 12 11 13 11 13 14 17 12 15 18 19 20 21 22 22 21 20 20 22 17 15 17 17 19 19 19 18 9 10 5 3 3 4
Wind_Direction
199 218 219 218 223 265 260 259 254 235 237 252 247 253 245 228 224 231 210 215 357 357 12 8 4 5 355 289 228 219 213 211 205 207 209 214 221 221 214 229 208 211 214 216
181 228 235 232 226 233 233 237 239 255 230 222 225 242 234 222 187 82 23 39 4 350 359 5 358 356 1 351 283 233 226 217 211 214 217 221 218 229 219 219 223 222 216 217
226 150 232 219 209 222 228 236 230 254 163 236 257 240 213 137 144 113 65 40 20 4 354 358 359 359 354 352 338 282 234 225 219 218 217 220 225 226 227 223 230 227 221 215
236 248 222 217 223 219 237 213 242 225 225 244 196 259 184 163 147 93 49 34 22 15 12 9 8 7 4 352 340 321 255 230 226 221 220 216 221 223 227 227 230 220 223 221
222 226 220 228 236 226 251 224 222 233 242 257 203 252 197 154 166 71 54 50 41 33 31 26 20 18 13 8 1 352 313 241 228 224 227 227 229 236 229 226 221 212 216 217
248 124 264 290 327 246 251 225 236 241 246 237 238 213 238 182 112 107 81 63 51 42 37 37 33 31 22 21 18 17 4 324 260 238 229 235 238 235 237 223 228 216 217 216
201 183 155 314 238 208 219 225 227 221 226 242 239 223 239 87 95 99 94 79 60 44 38 34 31 32 28 26 23 23 24 18 359 276 243 242 236 239 235 232 224 221 215 208
221 184 228 30 264 291 219 242 247 254 246 235 146 218 114 114 116 106 89 69 57 46 47 41 30 21 27 29 27 26 24 18 13 358 345 260 247 242 237 230 234 209 219 178
247 196 141 69 40 267 184 230 352 289 276 279 217 117 147 151 147 151 127 80 55 42 49 30 24 18 17 22 25 23 21 20 18 9 359 323 277 246 250 233 200 189 177 171
51 251 204 119 236 91 295 72 222 229 270 262 259 255 210 174 152 138 119 65 40 23 24 25 22 17 7 8 16 13 10 14 15 13 4 346 332 282 249 221 198 190 191 177
301 267 179 211 211 248 180 196 229 267 229 245 263 259 13 125 100 207 41 16 5 338 341 344 351 356 356 360 358 358 359 8 12 4 359 2 346 330 295 229 216 204 188 173
32 291 263 254 27 286 264 269 278 249 231 239 259 243 131 121 107 59 60 39 35 14 3 358 343 334 337 340 349 356 353 355 1 2 360 358 360 354 316 286 263 214 197 215
156 217 250 213 204 206 245 236 242 257 273 257 243 231 142 131 117 72 32 25 26 6 12 12 2 354 348 343 340 342 339 344 347 351 356 360 356 359 356 317 263 253 240 235
301 274 278 287 2 325 267 237 232 238 244 253 249 224 220 184 276 312 10 1 358 357 4 5 354 352 349 343 337 336 331 330 335 333 345 354 356 352 353 349 320 272 256 259
267 259 250 269 289 280 277 263 235 239 260 269 294 293 266 304 299 273 317 329 329 332 332 339 337 337 335 335 330 327 321 325 327 326 316 336 348 354 350 350 344 326 277 261
211 262 285 276 245 267 272 263 255 260 258 260 264 271 271 69 252 259 281 304 312 319 322 325 324 324 323 325 324 322 319 319 320 317 305 314 321 339 343 340 340 338 326 288
256 263 249 271 172 282 269 263 255 246 241 256 250 13 100 212 263 295 303 308 311 326 326 322 318 313 311 310 310 306 306 307 308 307 301 286 294 304 335 331 329 330 328 324
270 250 274 269 272 273 22 348 289 240 220 221 248 246 320 315 308 292 286 319 332 330 322 316 311 310 307 306 300 298 296 294 293 294 293 289 273 287 306 316 325 327 323 313
224 258 257 252 269 273 280 191 216 203 201 217 258 236 266 321 311 289 65 338 322 314 311 308 304 304 302 299 297 295 292 288 284 280 281 280 280 268 277 284 302 313 317 315
221 232 247 263 238 264 51 83 115 260 257 102 238 138 299 316 292 298 6 330 316 308 306 307 307 301 298 295 295 292 289 287 281 277 275 277 273 270 265 269 273 291 303 307
183 205 223 236 256 289 53 129 144 245 58 115 93 313 304 293 307 313 310 309 313 313 311 309 300 296 295 296 293 290 289 283 284 279 277 275 273 264 252 256 259 274 298 304
186 186 203 224 229 255 112 157 248 69 91 310 303 300 299 295 299 301 305 312 312 307 310 298 296 294 295 293 292 290 289 288 285 282 275 272 269 263 246 240 260 271 295 308
253 257 287 192 220 70 191 298 76 316 304 306 296 288 288 294 295 315 305 309 305 317 307 306 295 285 288 292 292 287 285 285 285 281 277 269 268 260 245 238 241 263 285 304
209 236 243 279 231 282 245 240 248 291 295 307 293 280 289 290 295 301 311 307 314 322 312 307 298 293 290 291 292 298 290 283 276 277 274 268 260 254 246 233 232 242 270 294
294 310 251 268 265 265 250 298 289 301 297 294 291 285 300 305 294 296 303 311 313 308 306 301 299 292 292 293 298 299 295 290 285 271 266 263 255 250 245 219 230 234 260 285
243 249 244 251 19 287 300 340 314 297 295 304 303 298 286 276 294 298 298 307 296 296 302 300 289 285 291 296 303 307 306 291 284 279 273 265 251 245 225 189 182 244 261 316
Height
772 778 778 765 764 760 769 773 774 764 762 773 767 762 754 748 749 748 747 752 753 756 758 759 760 760 757 757 759 762 765 769 773 776 778 781 782 786 786 791 789 797 801 807
776 778 757 757 763 771 774 777 774 765 762 771 761 766 751 746 749 753 757 758 760 758 758 761 760 757 757 758 758 759 762 765 768 771 775 778 778 781 781 782 786 793 797 804
769 757 752 761 770 776 773 774 770 770 765 764 765 765 756 755 758 759 761 762 762 763 763 762 761 760 757 756 756 756 758 761 764 767 770 773 774 776 776 780 784 789 791 797
761 749 761 764 766 767 773 763 765 768 772 773 757 765 751 753 761 763 764 764 764 764 763 762 762 761 760 758 755 753 754 757 761 764 765 767 768 769 774 778 782 786 792 795
761 759 762 766 761 755 765 752 762 763 766 764 765 771 735 747 762 769 769 769 768 766 765 764 763 763 762 760 756 752 753 755 759 761 763 765 767 768 772 775 778 782 786 788
751 751 755 754 756 757 755 762 763 762 763 775 760 762 745 741 756 771 771 773 772 769 769 767 768 768 766 762 759 757 755 755 757 759 761 763 764 767 766 769 773 776 780 784
755 758 762 762 763 759 761 765 779 780 774 771 741 750 746 768 769 773 776 776 775 772 772 770 770 770 771 768 765 762 760 759 758 757 759 760 762 764 765 767 768 770 775 778
757 777 768 767 766 760 757 758 766 775 762 748 749 763 754 770 774 776 778 777 775 775 774 775 776 774 773 773 771 767 765 763 761 758 757 758 758 759 760 761 763 766 769 774
766 768 774 772 768 769 763 773 766 767 755 762 741 763 771 772 776 778 778 779 779 778 776 777 777 778 775 775 775 773 770 767 765 763 760 758 758 758 757 758 761 763 766 770
775 779 775 776 771 770 771 771 783 778 799 790 756 754 757 772 775 775 777 780 781 779 777 778 778 779 778 776 775 776 775 772 769 766 764 761 759 757 756 757 758 760 763 765
779 781 776 777 773 767 773 772 774 778 789 793 790 786 772 772 778 783 784 787 785 784 782 780 779 779 778 778 776 777 776 774 773 771 768 765 761 759 758 757 758 758 761 762
783 785 780 775 778 780 779 777 775 783 784 777 772 779 776 781 785 788 789 789 789 788 787 786 785 784 782 780 780 778 778 776 774 773 771 769 764 761 759 759 758 758 760 762
786 783 783 780 783 783 783 776 781 782 779 779 786 779 785 787 787 790 790 790 790 791 790 787 787 787 788 787 783 781 780 778 776 774 773 771 768 764 761 759 758 758 758 759
795 788 789 782 787 785 789 786 783 784 785 778 774 780 790 785 790 790 792 792 792 793 793 792 791 790 790 789 788 786 785 783 779 776 773 772 769 767 763 761 758 757 756 757
794 793 787 784 789 790 787 786 783 787 782 784 773 776 778 779 787 792 794 793 793 792 794 795 795 794 792 791 789 787 785 783 782 778 774 772 770 768 766 763 760 757 756 756
793 794 791 790 786 791 791 785 783 783 783 783 784 785 775 783 789 789 790 791 793 792 793 794 795 794 793 791 788 786 784 782 780 777 773 769 770 767 766 764 761 758 756 755
796 790 793 789 793 790 791 777 775 777 779 783 785 777 781 785 789 789 790 791 791 791 794 794 794 793 792 791 789 786 783 781 778 776 772 767 767 767 763 763 762 758 755 753
800 795 790 792 788 798 772 778 779 773 776 777 779 781 787 789 791 790 787 789 792 795 796 795 793 791 790 788 786 784 781 778 775 772 769 766 765 764 761 761 760 757 754 753
800 798 800 802 788 780 773 776 781 779 778 775 778 780 787 791 792 783 789 794 795 795 795 793 791 789 787 785 783 781 778 775 772 768 766 763 760 760 759 760 759 756 753 751
797 799 801 791 807 799 777 780 780 782 782 775 782 786 791 792 789 779 787 793 793 792 790 787 786 783 782 779 778 777 774 771 768 765 762 761 759 757 757 757 756 754 751 748
795 797 803 801 805 786 774 784 784 789 786 786 787 790 791 792 790 791 791 790 790 790 789 788 786 782 779 776 772 770 768 765 763 761 759 757 755 753 753 754 752 750 749 746
783 791 793 792 800 802 781 788 788 789 789 790 790 790 793 793 791 790 789 788 787 784 783 783 780 775 774 771 768 766 763 760 757 756 754 752 750 748 745 748 748 746 745 743
792 779 785 785 785 784 783 784 785 791 791 790 789 791 792 793 790 789 788 785 783 780 778 776 773 772 769 766 762 760 757 756 752 750 748 746 745 742 741 743 743 742 741 739
784 788 790 788 776 780 783 785 788 790 791 791 790 790 790 790 789 786 783 783 778 778 775 771 768 763 761 758 756 754 751 749 746 744 742 740 738 735 734 737 739 738 737 736
784 791 786 781 779 780 782 785 787 790 791 790 789 789 791 791 789 784 782 780 779 777 773 769 763 759 755 751 749 747 745 741 739 737 736 733 731 729 729 732 734 735 735 735
783 786 788 788 784 785 785 786 788 789 788 788 788 786 787 789 785 779 777 778 777 772 768 765 760 754 750 746 745 742 739 737 735 732 729 727 725 726 725 727 731 732 732 730